TimeCST,TemperatureF,Dew PointF,Humidity,Sea Level PressureIn,VisibilityMPH,Wind Direction,Wind SpeedMPH,Gust SpeedMPH,PrecipitationIn,Events,Conditions,WindDirDegrees,DateUTC
12:15 AM,48.2,46.4,93,29.91,10.0,Calm,Calm,-,N/A,,Overcast,0,2012-12-07 06:15:00
12:35 AM,48.2,46.4,93,29.91,10.0,Calm,Calm,-,N/A,,Overcast,0,2012-12-07 06:35:00
12:55 AM,46.4,44.6,93,29.90,10.0,Calm,Calm,-,N/A,,Mostly Cloudy,0,2012-12-07 06:55:00
1:15 AM,46.4,44.6,93,29.89,8.0,Calm,Calm,-,N/A,,Scattered Clouds,0,2012-12-07 07:15:00
1:35 AM,46.4,46.4,100,29.90,10.0,Calm,Calm,-,N/A,,Mostly Cloudy,0,2012-12-07 07:35:00
1:55 AM,46.4,44.6,93,29.90,10.0,Calm,Calm,-,N/A,,Overcast,0,2012-12-07 07:55:00
2:15 AM,46.4,46.4,100,29.90,8.0,Calm,Calm,-,N/A,,Overcast,0,2012-12-07 08:15:00
2:35 AM,44.6,44.6,100,29.89,7.0,Calm,Calm,-,N/A,,Overcast,0,2012-12-07 08:35:00
2:55 AM,44.6,44.6,100,29.90,5.0,Calm,Calm,-,N/A,,Overcast,0,2012-12-07 08:55:00
3:15 AM,44.6,44.6,100,29.90,4.0,Calm,Calm,-,N/A,,Overcast,0,2012-12-07 09:15:00
3:35 AM,44.6,44.6,100,29.89,4.0,Calm,Calm,-,N/A,,Overcast,0,2012-12-07 09:35:00
3:55 AM,46.4,46.4,100,29.89,8.0,Calm,Calm,-,N/A,,Overcast,0,2012-12-07 09:55:00
4:15 AM,46.4,46.4,100,29.89,6.0,Calm,Calm,-,N/A,,Overcast,0,2012-12-07 10:15:00
4:35 AM,44.6,44.6,100,29.89,5.0,Calm,Calm,-,N/A,,Overcast,0,2012-12-07 10:35:00
5:15 AM,46.4,46.4,100,29.88,8.0,Calm,Calm,-,N/A,,Overcast,0,2012-12-07 11:15:00
5:35 AM,48.2,46.4,93,29.88,8.0,Calm,Calm,-,N/A,,Overcast,0,2012-12-07 11:35:00
6:50 AM,48.2,46.4,93,29.89,10.0,Calm,Calm,-,N/A,,Overcast,0,2012-12-07 12:50:00
7:48 AM,48.2,48.2,100,29.90,10.0,Calm,Calm,-,N/A,,Overcast,0,2012-12-07 13:48:00
8:45 AM,50.0,48.2,94,29.90,10.0,Calm,Calm,-,N/A,,Overcast,0,2012-12-07 14:45:00
9:50 AM,53.6,48.2,82,29.91,10.0,Calm,Calm,-,N/A,,Overcast,0,2012-12-07 15:50:00
10:45 AM,55.4,48.2,77,29.90,9.0,Calm,Calm,-,N/A,,Overcast,0,2012-12-07 16:45:00
11:45 AM,55.4,48.2,77,29.87,9.0,Calm,Calm,-,N/A,,Overcast,0,2012-12-07 17:45:00
12:50 PM,55.4,50.0,82,29.84,10.0,Calm,Calm,-,N/A,,Overcast,0,2012-12-07 18:50:00
1:54 PM,53.6,50.0,88,29.83,10.0,Calm,Calm,-,N/A,,Overcast,0,2012-12-07 19:54:00
2:48 PM,53.6,48.2,82,29.82,10.0,Calm,Calm,-,N/A,,Overcast,0,2012-12-07 20:48:00
3:45 PM,53.6,48.2,82,29.83,10.0,Calm,Calm,-,N/A,,Overcast,0,2012-12-07 21:45:00
4:45 PM,53.6,48.2,82,29.84,10.0,Calm,Calm,-,N/A,,Overcast,0,2012-12-07 22:45:00
5:47 PM,53.6,48.2,82,29.85,8.0,Calm,Calm,-,N/A,,Overcast,0,2012-12-07 23:47:00
7:51 PM,51.8,48.2,88,29.85,8.0,Calm,Calm,-,N/A,,Overcast,0,2012-12-08 01:51:00
8:15 PM,51.8,48.2,88,29.86,8.0,Calm,Calm,-,N/A,,Overcast,0,2012-12-08 02:15:00
8:47 PM,51.8,48.2,88,29.86,10.0,Calm,Calm,-,N/A,,Overcast,0,2012-12-08 02:47:00
8:55 PM,51.8,48.2,88,29.86,8.0,Calm,Calm,-,N/A,,Overcast,0,2012-12-08 02:55:00
9:15 PM,51.8,48.2,88,29.86,8.0,Calm,Calm,-,N/A,,Overcast,0,2012-12-08 03:15:00
9:35 PM,51.8,48.2,88,29.87,8.0,Calm,Calm,-,N/A,,Overcast,0,2012-12-08 03:35:00
9:55 PM,51.8,48.2,88,29.88,8.0,Calm,Calm,-,N/A,,Overcast,0,2012-12-08 03:55:00
10:35 PM,50.0,48.2,94,29.88,7.0,Calm,Calm,-,N/A,,Overcast,0,2012-12-08 04:35:00
10:55 PM,51.8,50.0,94,29.88,7.0,Calm,Calm,-,N/A,,Overcast,0,2012-12-08 04:55:00
11:15 PM,51.8,50.0,94,29.88,6.0,Calm,Calm,-,N/A,,Overcast,0,2012-12-08 05:15:00
11:35 PM,51.8,50.0,94,29.88,6.0,Calm,Calm,-,N/A,,Overcast,0,2012-12-08 05:35:00
11:55 PM,51.8,50.0,94,29.88,5.0,Calm,Calm,-,N/A,,Overcast,0,2012-12-08 05:55:00